• Join FlightAware (Why Join?)
  • Login
  • US Flag 
12:17PM EDT


 

Airport Tracker/Info


-or-


 

Live Flight TrackerFlight Track Log ✈ UAL4849 ✈ 25-Apr-2013 ✈ KROC - KEWR

Flight Track Log - Related Links

Times and Time Zones

All times are in EDT time to prevent confusion due to time zone crossing. See the UAL4849 flight status page for this flight to view local times or setup timezone preferences in your user account.

Time Position Orientation Groundspeed Altitude Reporting Facility
EDT Latitude Longitude Course Direction KTS MPH feet Rate Location/Type
11:37AM 43.1033 -77.6883 204° Southwest 114 131 1,200  Level Cleveland Center
11:38AM 43.0931 -77.6947 204° Southwest 120 138 1,700 1,320 Climbing Cleveland Center
11:39AM 43.0556 -77.6878 172° South 153 176 3,000 1,320 Climbing Cleveland Center
11:40AM 43.0292 -77.6322 123° Southeast 177 204 4,700 1,440 Climbing Cleveland Center
11:41AM 43.0131 -77.5733 110° East 166 191 6,200 1,380 Climbing Cleveland Center
11:42AM 42.9925 -77.5092 114° Southeast 166 191 7,500 1,380 Climbing Cleveland Center
11:43AM 42.9742 -77.4447 111° Southeast 171 197 9,000 1,260 Climbing Cleveland Center
11:44AM 42.9514 -77.3778 115° Southeast 182 209 10,100 900 Climbing Cleveland Center
11:45AM 42.9264 -77.2997 114° Southeast 202 232 10,900 900 Climbing Cleveland Center
11:46AM 42.8969 -77.2161 116° Southeast 226 260 11,900 660 Climbing Cleveland Center
11:48AM 42.8367 -77.0319 114° Southeast 256 295 13,000 360 Climbing New York Center
11:49AM 42.7983 -76.9322 118° Southeast 279 321 13,000  Level New York Center
11:50AM 42.7553 -76.8350 121° Southeast 292 336 13,000  Level New York Center
11:51AM 42.7147 -76.7472 122° Southeast 301 346 13,000  Level Boston Center
11:52AM 42.6744 -76.6597 122° Southeast 314 361 13,000  Level Boston Center
11:53AM 42.6300 -76.5578 121° Southeast 314 361 13,000  Level Boston Center
11:55AM 42.5431 -76.3633 121° Southeast 309 356 13,000  Level Boston Center
11:56AM 42.5003 -76.2733 123° Southeast 309 356 13,000  Level Boston Center
11:57AM 42.4558 -76.1719 121° Southeast 304 350 13,000  Level Boston Center
11:58AM 42.4053 -76.0564 121° Southeast 294 338 13,000  Level Boston Center
11:59AM 42.3567 -75.9494 122° Southeast 287 330 13,000  Level Boston Center
12:00PM 42.3136 -75.8544 121° Southeast 287 330 13,000  Level Boston Center
12:01PM 42.2725 -75.7625 121° Southeast 287 330 13,000  Level Boston Center
12:02PM 42.2292 -75.6733 123° Southeast 287 330 13,000  Level Boston Center
12:03PM 42.1919 -75.5900 121° Southeast 287 330 13,000  Level Boston Center
12:04PM 42.1586 -75.5183 122° Southeast 287 330 13,000  Level Boston Center
12:05PM 42.0994 -75.3867 121° Southeast 287 330 13,000 -360 Level Boston Center
12:06PM 42.0539 -75.2922 123° Southeast 289 333 12,300 -900 Descending Boston Center
12:07PM 42.0292 -75.2017 110° East 284 327 11,300 -660 Descending Boston Center
12:08PM 41.9756 -75.0819 121° Southeast 323 372 11,000 -120 Descending Boston Center
12:09PM 41.9344 -74.9714 117° Southeast 311 358 11,100  Climbing Boston Center
12:10PM 41.9008 -74.8836 117° Southeast 306 352 11,000 -480 Descending Boston Center
12:11PM 41.8594 -74.7761 117° Southeast 301 346 10,200 -900 Descending Boston Center
12:12PM 41.8086 -74.7128 137° Southeast 271 312 9,200 -1,080 Descending Boston Center
12:13PM 41.7258 -74.6847 166° South 271 312 8,100 -1,020 Descending Boston Center
12:14PM 41.6575 -74.6631 167° South 281 323 7,200 -540 Descending Boston Center
12:15PM 41.5786 -74.6436 170° South 276 318 7,100 -180 Descending Boston Center
12:16PM 41.5119 -74.6414 179° South 271 312 6,900 -600 Descending Boston Center
12:17PM 41.4286 -74.6383 178° South 271 312 6,000 -360 Descending Boston Center
12:19PM 41.3167 -74.6333 178° South 264 304 6,000  Level New York TRACON
12:20PM 41.2500 -74.6333 180° South 254 292 6,000  Level New York TRACON
12:21PM 41.2167 -74.5667 124° Southeast 249 287 6,000 -240 Level New York TRACON
12:22PM 41.1667 -74.4833 129° Southeast 247 284 5,600 -480 Descending New York TRACON
12:23PM 41.1000 -74.5000 191° South 243 280 5,100 -300 Descending New York TRACON
12:24PM 41.0333 -74.5167 191° South 237 273 5,100 -60 Level New York TRACON
12:25PM 40.9667 -74.5500 201° Southwest 237 273 5,000 -60 Descending New York TRACON
12:26PM 40.9000 -74.5667 191° South 238 274 5,000  Level New York TRACON
12:27PM 40.8500 -74.5833 194° South 238 274 5,100  Climbing New York TRACON
12:28PM 40.7833 -74.6000 191° South 232 267 5,000 -60 Descending New York TRACON
12:29PM 40.7333 -74.6167 194° South 234 269 5,000  Level New York TRACON
12:30PM 40.6667 -74.6000 169° South 245 282 5,000  Level New York TRACON
12:31PM 40.6000 -74.5667 159° South 234 269 5,100  Climbing New York TRACON
12:32PM 40.5500 -74.5667 180° South 213 245 5,100 -480 Level New York TRACON
12:33PM 40.4833 -74.5500 169° South 200 230 4,200 -600 Descending New York TRACON
12:34PM 40.4333 -74.5500 180° South 194 223 4,000 -120 Descending New York TRACON
12:35PM 40.3833 -74.5333 166° South 198 228 4,000  Level New York TRACON
12:36PM 40.3500 -74.4833 131° Southeast 197 227 4,100 -300 Climbing New York TRACON
12:37PM 40.3333 -74.4167 108° East 201 231 3,500 -600 Descending New York TRACON
12:38PM 40.3667 -74.3667 49° Northeast 174 200 2,900 -240 Descending New York TRACON
12:39PM 40.4000 -74.3500 21° North 174 200 3,100  Climbing New York TRACON
12:40PM 40.4500 -74.3167 27° Northeast 175 201 3,000 -120 Descending New York TRACON